Weather History for KDEN - August, 2013

Change the Weather History Date:

Sunday, August 25, 2013

  Actual Average Record
Temperature  
Mean Temperature 76 °F 71 °F  
Max Temperature 90 °F 86 °F 99 °F (2011)
Min Temperature 61 °F 56 °F 40 °F (1910)
Degree Days  
Heating Degree Days 0 0  
Month to date heating degree days 0 0  
Since 1 June heating degree days 29 68  
Since 1 July heating degree days 0 6  
Cooling Degree Days 11 6  
Month to date cooling degree days 226 210  
Year to date cooling degree days 784 654  
Since 1 June cooling degree days 742 632  
Growing Degree Days 26 (Base 50)    
Moisture  
Dew Point 53 °F    
Average Humidity 45    
Maximum Humidity 68    
Minimum Humidity 21    
Precipitation  
Precipitation 0.06 in 0.04 in 0.81 in (2014)
Month to date precipitation 2.78 1.46  
Year to date precipitation 10.75 11.13  
Snow  
Snow 0.00 in - - ()
Month to date snowfall 0  
Since 1 June snowfall 0  
Since 1 July snowfall 0  
Snow Depth 0.00 in    
Sea Level Pressure  
Sea Level Pressure 29.97 in    
Wind  
Wind Speed 7 mph (WSW)    
Max Wind Speed 22 mph    
Max Gust Speed 28 mph    
Visibility 10 miles    
Events Rain , Thunderstorm    
T = Trace of Precipitation, MM = Missing Value Source: NWS Daily Summary

Daily Weather History Graph

Daily Weather History Graph

Search for Another Location

Airport or City:

Trip Planner

Search our weather history database for the weather conditions in past years. The results will help you decide how hot, cold, wet, or windy it might be!

Date:

Astronomy

Aug. 25, 2013 Rise Set
Actual Time 6:20 AM MDT 7:40 PM MDT
Civil Twilight 5:52 AM MDT 8:08 PM MDT
Nautical Twilight 5:18 AM MDT 8:41 PM MDT
Astronomical Twilight 4:42 AM MDT 9:17 PM MDT
Moon 10:13 PM MDT 11:24 AM MDT
Length of Visible Light 14h 16m
Length of Day
13h 19m
Waning Gibbous, 75% of the Moon is Illuminated
Aug 25
Waning Gibbous
Aug 28
Last Quarter
Sep 5
New
Sep 12
First Quarter
Sep 19
Full

Hourly Weather History & Observations

Time (MDT) Temp. Dew Point Humidity Pressure Visibility Wind Dir Wind Speed Gust Speed Precip Events Conditions
12:20 AM 71.6 °F 53.6 °F 53% 30.17 in 10.0 mi WSW 8.1 mph - N/A   Mostly Cloudy
12:43 AM 69.8 °F 55.4 °F 60% 30.15 in 10.0 mi SSW 5.8 mph - 0.00 in Rain , Thunderstorm Light Thunderstorms and Rain
12:53 AM 71.1 °F 55.0 °F 57% 29.89 in 2.5 mi SW 4.6 mph - 0.00 in Thunderstorm Unknown
1:06 AM 69.8 °F 53.6 °F 56% 30.16 in 10.0 mi SSE 6.9 mph 19.6 mph 0.00 in Rain , Thunderstorm Light Thunderstorms and Rain
1:35 AM 71.6 °F 51.8 °F 50% 30.15 in 10.0 mi Calm Calm - 0.00 in   Mostly Cloudy
1:53 AM 66.9 °F 54.0 °F 63% 29.91 in 10.0 mi SSW 8.1 mph - 0.00 in   Mostly Cloudy
2:53 AM 66.0 °F 55.0 °F 68% 29.93 in 10.0 mi SSW 11.5 mph - N/A   Scattered Clouds
3:53 AM 66.9 °F 55.0 °F 66% 29.92 in 10.0 mi SSW 11.5 mph - N/A   Scattered Clouds
4:53 AM 66.0 °F 54.0 °F 65% 29.92 in 10.0 mi SSW 9.2 mph - N/A   Scattered Clouds
5:53 AM 64.0 °F 54.0 °F 70% 29.94 in 10.0 mi SW 8.1 mph - N/A   Scattered Clouds
6:53 AM 64.0 °F 53.1 °F 67% 29.95 in 10.0 mi Calm Calm - N/A   Scattered Clouds
7:53 AM 69.1 °F 53.1 °F 57% 29.96 in 10.0 mi WSW 10.4 mph - N/A   Scattered Clouds
8:53 AM 73.9 °F 53.1 °F 48% 29.95 in 10.0 mi WSW 13.8 mph - N/A   Scattered Clouds
9:53 AM 77.0 °F 48.9 °F 37% 29.96 in 10.0 mi West 9.2 mph - N/A   Mostly Cloudy
10:53 AM 81.0 °F 48.9 °F 33% 29.96 in 10.0 mi West 5.8 mph - N/A   Scattered Clouds
11:53 AM 84.0 °F 48.0 °F 28% 29.94 in 10.0 mi Variable 3.5 mph - N/A   Scattered Clouds
12:53 PM 84.9 °F 48.0 °F 28% 29.92 in 10.0 mi Variable 3.5 mph - N/A   Mostly Cloudy
1:53 PM 87.1 °F 48.0 °F 26% 29.91 in 10.0 mi WSW 9.2 mph - N/A   Mostly Cloudy
2:53 PM 89.1 °F 48.9 °F 25% 29.88 in 10.0 mi SW 9.2 mph 16.1 mph N/A   Mostly Cloudy
3:53 PM 89.1 °F 44.1 °F 21% 29.86 in 10.0 mi West 5.8 mph - N/A   Mostly Cloudy
4:53 PM 88.0 °F 46.0 °F 23% 29.86 in 10.0 mi Calm Calm - N/A   Mostly Cloudy
5:53 PM 86.0 °F 48.9 °F 28% 29.88 in 10.0 mi West 8.1 mph - N/A   Mostly Cloudy
6:44 PM 75.2 °F 55.4 °F 50% 30.16 in 2.5 mi West 10.4 mph - 0.02 in Rain , Thunderstorm Heavy Thunderstorms and Rain
6:48 PM 73.4 °F 57.2 °F 57% 30.16 in 7.0 mi West 13.8 mph - 0.05 in Rain , Thunderstorm Heavy Thunderstorms and Rain
6:53 PM 75.0 °F 55.9 °F 51% 29.94 in 7.0 mi WNW 16.1 mph - 0.06 in Rain , Thunderstorm Thunderstorms and Rain
7:08 PM 77.0 °F 55.4 °F 47% 30.16 in 10.0 mi West 10.4 mph - 0.00 in   Overcast
7:53 PM 78.1 °F 54.0 °F 43% 29.93 in 10.0 mi West 4.6 mph - 0.00 in   Overcast
8:53 PM 75.9 °F 57.0 °F 52% 29.94 in 10.0 mi West 4.6 mph - 0.00 in   Mostly Cloudy
9:53 PM 73.0 °F 57.0 °F 57% 29.94 in 10.0 mi North 6.9 mph - N/A   Mostly Cloudy
10:53 PM 72.0 °F 54.0 °F 53% 29.94 in 10.0 mi WNW 6.9 mph - N/A   Mostly Cloudy
11:53 PM 70.0 °F 54.0 °F 57% 29.95 in 10.0 mi NNW 6.9 mph - N/A   Mostly Cloudy